{"data":{"norad_id":55430,"epoch":"2026-09-20T13:58:06.126240Z","epoch_age_seconds":92848,"freshness":"FRESH","line1":"1 55430U 23014AR  26263.58201535 -.00000033  00000+0  50055-5 0  9991","line2":"2 55430  70.0001 332.9851 0003775 268.5273  91.5454 14.98330967200261","mean_motion":14.98330967,"eccentricity":0.0003775,"inclination_deg":70.0001,"raan_deg":332.9851,"arg_perigee_deg":268.5273,"mean_anomaly_deg":91.5454,"bstar":5.0055e-6,"rev_number":20026,"period_min":96.106937099699,"perigee_km":569.42920389082,"apogee_km":574.67659726576,"semimajor_km":6950.1899005783,"source":"CELESTRAK","updated_at":"2026-09-21T09:00:33.221929Z"}}